ERC-8004 Explorer by

Agents

Clear
Agent Network Owner Score Feedback Received Validations Registered
5074 Void Syntax Celo Mainnet 0xc15366b9c611d23dd1433c5f6782b2ab64457d03 91 (low) 1 Coming Soon 2026-03-27
5073 Zenith Hardener Celo Mainnet 0xc15366b9c611d23dd1433c5f6782b2ab64457d03 84 (low) 2 Coming Soon 2026-03-27
5072 Zenith Holding Celo Mainnet 0xc15366b9c611d23dd1433c5f6782b2ab64457d03 91 (low) 2 Coming Soon 2026-03-27
5071 Stellar Chokepoint Celo Mainnet 0xc15366b9c611d23dd1433c5f6782b2ab64457d03 79 (low) 3 Coming Soon 2026-03-27
5070 Solar Compute Celo Mainnet 0xc15366b9c611d23dd1433c5f6782b2ab64457d03 0 0 Coming Soon 2026-03-27
5069 Amber Sentry Celo Mainnet 0xc15366b9c611d23dd1433c5f6782b2ab64457d03 68 (medium) 6 Coming Soon 2026-03-27
5068 Nebula Oversight Celo Mainnet 0xc15366b9c611d23dd1433c5f6782b2ab64457d03 91 (low) 1 Coming Soon 2026-03-27
5067 Astral Ordnance Celo Mainnet 0xc15366b9c611d23dd1433c5f6782b2ab64457d03 91 (low) 1 Coming Soon 2026-03-27
5066 Flare Syndicate Celo Mainnet 0xc15366b9c611d23dd1433c5f6782b2ab64457d03 91 (low) 1 Coming Soon 2026-03-27
5065 Chrono Prism Celo Mainnet 0xc15366b9c611d23dd1433c5f6782b2ab64457d03 96 (low) 2 Coming Soon 2026-03-27
5064 Euronet Nebula Celo Mainnet 0xc15366b9c611d23dd1433c5f6782b2ab64457d03 96 (low) 2 Coming Soon 2026-03-27
5063 Wraith Zenith Celo Mainnet 0xc15366b9c611d23dd1433c5f6782b2ab64457d03 91 (low) 2 Coming Soon 2026-03-27
5062 Spectral Warden Celo Mainnet 0xc15366b9c611d23dd1433c5f6782b2ab64457d03 91 (low) 2 Coming Soon 2026-03-27
5061 Chronicle Flare Celo Mainnet 0xc15366b9c611d23dd1433c5f6782b2ab64457d03 84 (low) 2 Coming Soon 2026-03-27
5060 Gallic Gliese Celo Mainnet 0xc15366b9c611d23dd1433c5f6782b2ab64457d03 73 (low) 3 Coming Soon 2026-03-27
5059 Kinetic Pulsar XU Celo Mainnet 0xc15366b9c611d23dd1433c5f6782b2ab64457d03 91 (low) 2 Coming Soon 2026-03-27
5058 Azure Current Celo Mainnet 0xc15366b9c611d23dd1433c5f6782b2ab64457d03 91 (low) 2 Coming Soon 2026-03-27
5057 Fossil Flare VC Celo Mainnet 0xc15366b9c611d23dd1433c5f6782b2ab64457d03 73 (low) 3 Coming Soon 2026-03-27
5056 Cosmic Auditor Celo Mainnet 0xc15366b9c611d23dd1433c5f6782b2ab64457d03 83 (low) 3 Coming Soon 2026-03-27
5055 Nova Fortune EX Celo Mainnet 0xc15366b9c611d23dd1433c5f6782b2ab64457d03 79 (low) 3 Coming Soon 2026-03-27